Regional Weather Roundup
Issued by NWS Boston, MA

Home | Current Version | Previous Version | Text Only | Print | Product List | Glossary On
Versions: 1 2 3 4 5 6 7 8 9 10 11 12 13 14 15 16 17 18 19 20 21 22 23 24 25 26 27 28 29 30 31 32 33 34 35 36 37 38 39 40 41 42 43 44 45 46 47 48 49 50
000
ASUS41 KBOX 292010
RWRBOX

REGIONAL WEATHER ROUNDUP
NATIONAL WEATHER SERVICE TAUNTON MA
400 PM EDT SAT AUG 29 2015

NOTE:  "FAIR" INDICATES FEW OR NO CLOUDS BELOW 12,000 FEET WITH NO
SIGNIFICANT WEATHER AND/OR OBSTRUCTIONS TO VISIBILITY.  THE FOLLOWING
OBSERVATION LOCATIONS DO NOT REPORT PRESENT WEATHER...PROVINCETOWN...
SMITHFIELD...BLOCK ISLAND...KEENE...AND OXFORD.

MAZALL-292100-
EASTERN MASSACHUSETTS

CITY           SKY/WX    TMP DP  RH WIND       PRES   REMARKS
BOSTON         PTSUNNY   81  54  39 SW8       30.10F
BEVERLY        PTSUNNY   79  55  43 SW8       30.09F
LAWRENCE       PTSUNNY   80  54  40 SW12      30.11F
BEDFORD        PTSUNNY   79  52  38 SW7       30.09F
BLUE HILL        N/A     79  56  45 SW10G17   30.11F
NORWOOD        PTSUNNY   80  56  43 VRB7      30.10F
MARSHFIELD     PTSUNNY   81  57  44 SW7       30.11F
PLYMOUTH       PTSUNNY   79  57  46 SW10      30.12F
TAUNTON        MOSUNNY   80  58  46 SW8       30.10F
NEW BEDFORD    MOSUNNY   77  60  55 S13       30.11F
$$

MAZALL-292100-
CAPE COD AND THE ISLANDS

CITY           SKY/WX    TMP DP  RH WIND       PRES   REMARKS
FALMOUTH       PTSUNNY   77  55  47 SW15      30.13F
HYANNIS        PTSUNNY   77  55  46 SW13      30.12F
CHATHAM        PTSUNNY   76  64  66 SW7       30.15F
PROVINCETOWN   PTSUNNY   79  55  44 SW15      30.12F
NANTUCKET      PTSUNNY   76  67  73 SW10      30.15F
MARTHAS VNYRD  MOSUNNY   77  59  53 SW12      30.14F
$$

MAZALL-292100-
CENTRAL AND WESTERN MASSACHUSETTS

CITY           SKY/WX    TMP DP  RH WIND       PRES   REMARKS
WORCESTER      MOSUNNY   75  53  46 W7        30.15F
FITCHBURG      MOSUNNY   80  54  40 NW13      30.12F
ORANGE         PTSUNNY   78  55  44 SW9       30.12F
SPRINGFIELD    PTSUNNY   80  56  44 W6        30.10F
WESTFIELD      MOSUNNY   80  55  42 VRB7      30.11F
NORTH ADAMS    PTSUNNY   77  59  53 VRB5      30.13F
PITTSFIELD     MOSUNNY   75  57  53 SW8       30.14F
$$

RIZALL-292100-
RHODE ISLAND

CITY           SKY/WX    TMP DP  RH WIND       PRES   REMARKS
PROVIDENCE     MOSUNNY   81  55  40 W10       30.11F
NEWPORT        MOSUNNY   77  58  51 SW8G18    30.12F
BLOCK ISLAND   SUNNY     77  63  61 SW12      30.14F
SMITHFIELD     MOSUNNY   79  55  44 W7        30.12F
WESTERLY       SUNNY     79  56  45 SW10      30.14F
$$

CTZALL-292100-
CONNECTICUT

CITY           SKY/WX    TMP DP  RH WIND       PRES   REMARKS
BRADLEY INTL   PTSUNNY   82  55  39 W8        30.11F
HARTFORD       MOSUNNY   83  55  38 VRB7      30.11F
BRIDGEPORT     SUNNY     81  58  45 S10       30.12F
DANBURY        SUNNY     80  55  42 CALM      30.14F
GROTON         SUNNY     78  60  53 SW13      30.12F
NEW HAVEN      PTSUNNY   79  58  48 SW10      30.12F
CHESTER        NOT AVBL
MERIDEN        SUNNY     84  54  35 W7G17     30.11F
WILLIMANTIC    MOSUNNY   81  55  40 SW8       30.11F
OXFORD         MOSUNNY   79  55  44 NW6       30.15F
$$

MEZ002-015-021-024-NHZ003-005-008-011-012-014-VTZ005-008-292100-
NORTHERN NEW ENGLAND

CITY           SKY/WX    TMP DP  RH WIND       PRES   REMARKS
PORTLAND ME    PTSUNNY   74  57  55 S8G18     30.09F
BANGOR ME      CLOUDY    75  60  59 S13       30.07F
CONCORD NH     MOSUNNY   79  56  45 SW5       30.09F
MANCHESTER NH  PTSUNNY   80  53  39 W9        30.08F
NASHUA NH      PTSUNNY   81  55  40 W9        30.10F
PORTSMOUTH NH  PTSUNNY   80  56  43 SW9       30.07F
JAFFREY NH     PTSUNNY   75  55  49 W7        30.14F
KEENE NH       PTSUNNY   77  55  47 SW7       30.12F
BURLINGTON VT  PTSUNNY   77  55  46 S7        30.08F
MT. WASHINGTON FOG       55  50  82 W13         N/A  VSB 1/4
$$

NYZ052-076-292100-
EASTERN NEW YORK

CITY           SKY/WX    TMP DP  RH WIND       PRES   REMARKS
ALBANY         PTSUNNY   79  58  48 S9        30.11F
NEW YORK CITY  PTSUNNY   84  58  40 S16       30.11F
$$

ANZALL-292100-
MARINE OBSERVATIONS

STATION/POSITION TIME  TEMP    WIND        PRES    VSBY  WAVE
                       AIR SEA DIR/SP/G                  HT/PER
                 (UTC) (F)     (DEG/KT/KT) (MB)    (MI)  (FT/S)
BOSTON BUOY      1950   72 71  110/  6/  8 1019.8F         2/10
BUZZARDS BAY     1900          210/ 13/ 13 1021.7F
NANTUCKET SOUND  1950   73 74  230/ 12/ 16 1020.4F         1/10
MASS BAY-STELLWA 1904   71 69  160/ 10/ 12   N/A    1 7/8  3/11
ISLE OF SHOALS   2000   70     150/ 12/ 13 1018.4F
S OF BLOCK IS    1908      75                N/A           3/11
$$

......................KEY.........................
  SKY/WX - SKY CONDITION/PRESENT WEATHER
  TMP    - TEMPERATURE IN FAHRENHEIT
  DWPT   - DEWPOINT IN FAHRENHEIT
  RH     - RELATIVE HUMIDITY IN PERCENT
  WIND   - DIRECTION AND SPEED IN MPH
  PRES   - MEAN SEA LEVEL PRESSURE IN INCHES OF HG
  WCI    - WIND CHILL INDEX
  VSB    - VISIBILITY IN MILES
  HX     - HEAT INDEX
  TC     - TEMPERATURE IN CELSIUS
  VRB    - VARIABLE WIND DIRECTION
  N/A    - NOT AVAILABLE



USA.gov is the U.S. government's official web portal to all federal, state and local government web resources and services.